CZ-6A DEB

Satellite information

Favourite Embed

Satellite Type and Status

DEBRISIN ORBIT

Key statistics

Satellite CZ-6A DEB at a glance.

Uptime

273

Days in orbit

Revolutions

≈ 14.3

Per day

Orbit

LEO

Low Earth Orbit

Inclination

89.0

Latest

Satellite identification and parameters

Extended collection of information and parameters for CZ-6A DEB.

Object identification

Identified? True

Debris? True

Object name: CZ-6A DEB

International designator: 2024-140VR

Object number (NORAD): 61352

Object ID (CCSDS): 61352

Country: PEOPLES REPUBLIC OF CHINA (PRC)

Current information (Y/N): Y

RCS size: SMALL

Orbital parameters

Period: 100.965 minutes

Inclination: 89.0055 deg

SMA: 7182.487 km

Apoapsis: 824.004 km

Periapsis: 784.7 km

RAAN: 320.4299 deg

Eccentricy: 0.0027361

Argument of periapsis: 46.7441 deg

Mean anomaly: 313.6029 deg

Mean motion: 14.26233156 rev/day

Mean motion (dot): 0.00003192 rev/day2

B* drag term: 0.0013214 1/REarth

Two-line elements (TLE)

Creation date: May 6, 2025, 3:54 a.m.

Reference frame: TEME

Reference center: EARTH

Epoch: May 5, 2025, 6:38 p.m. UTC

TLE line 0: 0 CZ-6A DEB

TLE line 1: 1 61352U 24140VR 25125.77641559 .00003192 00000-0 13214-2 0 9995

TLE line 2: 2 61352 89.0055 320.4299 0027361 46.7441 313.6029 14.26233156 34880

Live tracking on map

Real-time ground track for satellite CZ-6A DEB.

In-orbit conjunctions

A list of the most updated potential collisions computed for object CZ-6A DEB.

Target Orbit TCA Probability of collision Miss distance Type
PEGASUS R/B LEO 2025-04-03 09:02:05 0.0001666255 676.0 (m) ROCKET BODY
DELTA 2 R/B LEO 2025-02-09 21:42:08 0.0001392648 724.0 (m) ROCKET BODY
FENGYUN 1C DEB SSO 2025-01-18 07:16:18 0.0002143112 629.0 (m) DEBRIS
FENGYUN 1C DEB SSO 2024-12-09 15:03:44 0.0001031162 892.0 (m) DEBRIS
CZ-6A DEB LEO 2024-11-21 03:35:16 0.00010367 235.0 (m) DEBRIS

Associated space launch

18 Low Earth Orbit communication satellites with Ku, Q and V band payloads for the G60 constellation operated by Shanghai Spacecom Satellite Technology (SSST) with funding backed by the Shanghai local government. Initial constellation will consist of 1296 satellites by 2027 with long term plans to expand it to 12000 satellites.

CZ-6A DEB was lifted into orbit during the mission ‘Long March 6A | G60 Polar Group 01’, on board a Long March 6A space rocket.

The launch took place on Aug. 6, 2024, 6:42 a.m. from Launch Complex 9A.

For more information about the launch, click the button.

Launch to space Long March 6A | G60 Polar Group 01
Long March 6A | G60 Polar Group 01

Agency: N/A

Status: Launch Successful

Launch date: Aug. 6, 2024, 6:42 a.m. UTC

Rocket: Long March 6A

Launch pad: Launch Complex 9A

Location: Taiyuan Satellite Launch Center, People's Republic of China

...

Latest news about this satellite

News about space launch
Brightness of first Chinese broadband constellation satellites alarms astronomers

The first satellites of a Chinese broadband constellation are significantly brighter than those of Western systems, posing a new challenge for astronomers.

News about space launch
Chinese rocket stage breaks up into cloud of more than 700 pieces of space debris

HELSINKI — A Chinese Long March 6A rocket’s upper stage has fragmented into a cloud of over 700 pieces of space debris, adding to concerns about long-term orbital safety. China […]

News about space launch
China's Thousand Sails Megaconstellation Kicks Off with Dangerous Debris Field

China's Thousand Sails Megaconstellation Kicks Off with Dangerous Debris Field


Newsletter sign-up

Weekly statistics, charts and insights to help you stay on top of the space industry.